[[{"header":{"parameterUnit":"m.s-1","parameterCategory":1,"la1":30.2992,"la2":30.254,"lo1":-89.0895,"lo2":-89.0443,"dy":0.0025,"dx":0.0025,"nx":19,"ny":19,"refTime":"2026-05-15T09:00:00:Z","depth":0,"parameterNumber":2,"parameterNumberName":"U-component_of_WINDS"},"data":[0,0,0,-3.1101,-3.1102,-3.1119,-3.1119,-3.1158,-3.1159,0,0,0,0,0,0,0,0,0,0,0,-3.1107,-3.1107,-3.1101,-3.1102,-3.1119,-3.1119,-3.1158,-3.1159,0,0,0,0,0,0,0,0,0,0,0,-3.1106,-3.1107,-3.1108,-3.1102,-3.1119,-3.1119,-3.1158,-3.1139,0,0,0,0,0,0,0,0,0,0,-3.112,-3.1134,-3.1107,-3.1108,-3.1102,-3.1119,-3.1119,-3.1138,-3.114,-3.1158,0,-3.1176,0,-3.1168,-3.1162,-3.1163,0,0,0,-3.1095,-3.1132,-3.1128,-3.1108,-3.1103,-3.1119,-3.1109,-3.1139,-3.1142,-3.1161,-3.1176,-3.1177,-3.1169,-3.1163,-3.1163,-3.1289,-3.129,0,0,-3.1094,-3.1115,-3.1126,-3.113,-3.1128,-3.1109,-3.111,-3.114,-3.1158,-3.1176,-3.1178,-3.1169,-3.1163,-3.1164,-3.1288,-3.1289,0,0,0,-3.1096,-3.1115,-3.1109,-3.1129,-3.1131,-3.1109,-3.1111,-3.1157,-3.1153,-3.1178,-3.117,-3.1164,-3.1164,-3.1287,-3.1288,-3.1355,0,0,0,-3.1095,-3.1116,-3.1109,-3.1122,-3.113,-3.1144,-3.1127,-3.1151,-3.1154,-3.117,-3.1164,-3.1165,-3.1286,-3.1288,-3.1351,-3.1382,0,0,0,-3.1102,-3.1117,-3.1123,-3.1124,-3.1132,-3.1143,-3.1141,-3.1151,-3.1149,-3.1163,-3.1165,-3.1285,-3.1287,-3.1347,-3.1376,-3.1421,0,0,0,-3.1116,-3.1182,-3.1124,-3.1195,-3.1132,-3.1184,-3.114,-3.1179,-3.1198,-3.1164,-3.1286,-3.1288,-3.1346,-3.1372,-3.1417,-3.1461,-3.1482,0,0,-3.1211,-3.1194,-3.1235,-3.1183,-3.1251,-3.118,-3.1258,-3.1256,-3.1238,-3.1273,-3.1276,-3.1352,-3.1376,-3.142,-3.1593,-3.161,0,0,0,-3.1272,-3.1301,-3.1315,-3.1334,-3.1334,-3.1336,-3.132,-3.1319,-3.1348,-3.126,-3.138,-3.1394,-3.1419,-3.1439,-3.1453,-3.1473,-3.1299,-3.1299,-3.1298,-3.1438,-3.1411,-3.1475,-3.1451,-3.1471,-3.1453,-3.1466,-3.1462,-3.143,-3.1459,-3.1468,-3.1577,-3.1601,-3.1612,-3.1633,-3.1491,-3.1491,-3.1491,-3.1492,-3.1574,-3.1611,-3.1566,-3.1613,-3.1585,-3.1623,-3.161,-3.1586,-3.1618,-3.1567,-3.1588,-3.1534,-3.1631,-3.1648,-3.1496,-3.1496,-3.1495,-3.1494,-3.1494,-3.1679,-3.1691,-3.1689,-3.1715,-3.1737,-3.1711,-3.1744,-3.1717,-3.1692,-3.1713,-3.172,-3.1718,-3.1713,-3.1718,-3.1719,-3.1719,-3.1719,-3.172,-3.172,-3.1787,-3.1783,-3.1813,-3.1819,-3.1828,-3.1837,-3.182,-3.1829,-3.1831,-3.1809,-3.1809,-3.1773,-3.1646,-3.1613,-3.1726,-3.1725,-3.1724,-3.1723,-3.1723,-3.1933,-3.1896,-3.1943,-3.1952,-3.1957,-3.1981,-3.1947,-3.1966,-3.1969,-3.1986,-3.1947,-3.1857,-3.1838,-3.1826,-3.1799,-3.1953,-3.1953,-3.1953,-3.1953,-3.202,-3.2008,-3.205,-3.2066,-3.2079,-3.2053,-3.2108,-3.2096,-3.2079,-3.2079,-3.2053,-3.2016,-3.2005,-3.1992,-3.1977,-3.1951,-3.214,-3.214,-3.214,-3.2108,-3.2096,-3.2147,-3.2129,-3.2131,-3.2133,-3.2183,-3.2204,-3.2176,-3.2147,-3.2078,-3.207,-3.201,-3.1992,-3.1959,-3.1937,-3.1889,0,0]},{"header":{"parameterUnit":"m.s-1","parameterCategory":1,"la1":30.2992,"la2":30.254,"lo1":-89.0895,"lo2":-89.0443,"dy":0.0025,"dx":0.0025,"nx":19,"ny":19,"refTime":"2026-05-15T09:00:00:Z","depth":0,"parameterNumber":3,"parameterNumberName":"V-component_of_WINDS"},"data":[0,0,0,3.1976,3.1977,3.203,3.203,3.2097,3.2098,0,0,0,0,0,0,0,0,0,0,0,3.1961,3.1961,3.1975,3.1977,3.203,3.203,3.2097,3.2098,0,0,0,0,0,0,0,0,0,0,0,3.1961,3.1961,3.1962,3.1977,3.203,3.203,3.2097,3.2057,0,0,0,0,0,0,0,0,0,0,3.2005,3.1993,3.1961,3.1962,3.1977,3.203,3.203,3.2055,3.2059,3.2073,0,3.2087,0,3.2094,3.2102,3.2103,0,0,0,3.1976,3.1989,3.2003,3.1962,3.1978,3.203,3.2006,3.2057,3.2062,3.2079,3.2088,3.2091,3.2095,3.2103,3.2103,3.2191,3.2192,0,0,3.1973,3.1971,3.1999,3.2006,3.2,3.2004,3.2007,3.206,3.207,3.2089,3.2092,3.2096,3.2103,3.2104,3.2191,3.2192,0,0,0,3.1965,3.1969,3.1981,3.2004,3.2013,3.2006,3.2009,3.2067,3.2071,3.2093,3.2097,3.2104,3.2105,3.2191,3.2191,3.2213,0,0,0,3.1963,3.1964,3.198,3.1979,3.2012,3.2041,3.2015,3.2068,3.2074,3.2097,3.2104,3.2105,3.219,3.2191,3.2211,3.2223,0,0,0,3.1957,3.1963,3.1972,3.1979,3.2002,3.204,3.2048,3.2069,3.2076,3.2103,3.2105,3.219,3.2191,3.221,3.2221,3.2246,0,0,0,3.1949,3.1989,3.1972,3.2018,3.2001,3.2054,3.2047,3.2086,3.2112,3.2104,3.219,3.2191,3.2209,3.2219,3.2245,3.2267,3.2277,0,0,3.1998,3.1995,3.2022,3.2008,3.2064,3.2046,3.2104,3.2129,3.2132,3.2171,3.2173,3.2212,3.2221,3.2246,3.233,3.2337,0,0,0,3.2037,3.2057,3.2072,3.2097,3.2117,3.2136,3.2152,3.2161,3.2194,3.2152,3.2228,3.2233,3.2248,3.2259,3.2265,3.2278,3.2196,3.2196,3.2196,3.2103,3.2107,3.2152,3.2163,3.2186,3.2203,3.2222,3.2237,3.2233,3.2251,3.2262,3.2313,3.2326,3.233,3.2344,3.2275,3.2275,3.2275,3.2275,3.2175,3.2204,3.2198,3.2241,3.2244,3.2279,3.2296,3.2292,3.2324,3.2304,3.2317,3.2296,3.2339,3.235,3.2276,3.2276,3.2276,3.2276,3.2276,3.2219,3.2234,3.2245,3.2282,3.2309,3.2317,3.2349,3.235,3.2352,3.2365,3.2377,3.2377,3.2377,3.2371,3.2371,3.2371,3.2371,3.2371,3.2371,3.2261,3.2273,3.23,3.2326,3.2342,3.2363,3.238,3.2396,3.2413,3.2411,3.2412,3.2406,3.2342,3.2326,3.2374,3.2374,3.2373,3.2373,3.2373,3.2333,3.2317,3.2359,3.2376,3.2406,3.2433,3.2434,3.2466,3.2479,3.2494,3.2486,3.2438,3.2435,3.243,3.2416,3.2485,3.2485,3.2485,3.2485,3.237,3.2369,3.2413,3.2439,3.2464,3.247,3.2516,3.253,3.2541,3.2549,3.2539,3.2522,3.2516,3.2516,3.2509,3.2497,3.2584,3.2584,3.2584,3.2415,3.2416,3.2456,3.2468,3.2492,3.2512,3.2555,3.2584,3.2593,3.2588,3.2555,3.2551,3.2523,3.2514,3.2508,3.2497,3.2474,0,0]}]]